Volver al catálogo

NIMBUS 2 DEB

ActivoLEO
NORAD 25612·DEBRIS·🇺🇸 United States

Lanzado May 15, 1966 desde Vandenberg Space Force Base

Loading…

Próximos Pases (próximas 24 horas)

TLE

ActualizadoSource: Space-Track

Época: Sep 13, 2026, 06:07 UTC

1 25612U 66040E   26256.25506961  .00002709  00000-0  26773-2 0  9992
2 25612 100.4893 175.9070 0034176 294.0835 219.5400 13.79352253447718

Sigue NIMBUS 2 DEB en tiempo real con AllMySat

Download on the App Store